Regional Weather Roundup
Issued by NWS

Home | Current Version | Previous Version | Text Only | Print | Product List | Glossary On
Versions: 1 2 3 4 5 6 7 8 9 10 11 12 13 14 15 16 17 18 19 20 21 22 23 24 25 26 27 28 29 30 31 32 33 34 35 36 37 38 39 40 41 42 43 44 45 46 47 48 49 50
000
ASUS43 KMKX 200259
RWRWI

WISCONSIN REGIONAL WEATHER ROUNDUP
NATIONAL WEATHER SERVICE MILWAUKEE/SULLIVAN WI
900 PM CST FRI JAN 19 2018

NOTE: "FAIR" INDICATES FEW OR NO CLOUDS BELOW 12,000 FEET WITH NO
SIGNIFICANT WEATHER AND/OR OBSTRUCTIONS TO VISIBILITY.

WIZ001-002-006>008-014>016-023>028-200400-
NORTHWEST WISCONSIN

CITY           SKY/WX    TMP DP  RH WIND       PRES   REMARKS
SUPERIOR ARPT  FAIR      37  28  70 SW7       29.53R WCI  32
ASHLAND        FAIR      38  27  64 SW14      29.52R WCI  30
HAYWARD        FAIR      27  22  81 S6        29.56R WCI  20
SIREN          FAIR      35  28  76 SW8       29.58R WCI  29
CUMBERLAND     FAIR      32  27  80 W8        29.58R WCI  25
RICE LAKE      FAIR      25  24  95 CALM      29.60R
CHETEK         FAIR      28  27  93 CALM      29.59R
LADYSMITH      FAIR      29  26  87 SW6       29.58R WCI  23
EAU CLAIRE     NOT AVBL
MENOMONIE      FAIR      36  30  78 SW3       29.60R
NEW RICHMOND   FAIR      30  26  83 SW3       29.62R
OSCEOLA        FAIR      25  25 100 CALM      29.64R
$$

WIZ003>005-009-010-017-018-200400-
NORTH CENTRAL WISCONSIN

CITY           SKY/WX    TMP DP  RH WIND       PRES   REMARKS
MANITOWISH WTR FAIR      32  25  75 W8        29.50R WCI  25
ARBOR VITAE    FAIR      34  28  77 W5        29.50R WCI  30
WOODRUFF       FAIR      34  28  77 W5        29.50R WCI  30
RHINELANDER    FAIR      31  25  78 W9        29.51F WCI  23
EAGLE RIVER    FAIR      30  23  74 W8        29.48S WCI  23
LAND O LAKES   FAIR      34  26  72 W6        29.49R WCI  28
PHILLIPS       FAIR      31  26  81 SW6       29.53R WCI  25
TOMAHAWK       FAIR      32  25  77 CALM      29.53F
MEDFORD        FAIR      32  26  77 SW8       29.55S WCI  25
MERRILL        FAIR      32  26  78 W6        29.55S WCI  27
$$

WIZ029-030-035-036-043>047-200400-
CENTRAL WISCONSIN

CITY           SKY/WX    TMP DP  RH WIND       PRES   REMARKS
WAUSAU         FAIR      35  27  72 W6        29.55R WCI  30
MOSINEE        PTCLDY    34  27  75 W9        29.58R WCI  26
MARSHFIELD     FAIR      35  27  72 W7        29.58R WCI  29
STEVENS POINT  FAIR      35  26  69 W7        29.59R WCI  29
WAUPACA        FAIR      39  28  62 SW8       29.59R WCI  34
WAUTOMA        FAIR      36  26  67 SW7       29.62R WCI  30
WISC RAPIDS    FAIR      36  25  64 SW6       29.61R WCI  31
CAMP DOUGLAS   FAIR      38  29  70 SW7       29.61S WCI  33
$$

WIZ011>013-019>022-031-037>040-048>050-200400-
NORTHEAST WISCONSIN

CITY           SKY/WX    TMP DP  RH WIND       PRES   REMARKS
ANTIGO         FAIR      32  25  76 W13       29.53R WCI  23
SHAWANO        FAIR      37  26  66 SW8       29.56R WCI  30
OCONTO         FAIR      36  26  68 SW12      29.54S WCI  28
STURGEON BAY   FAIR      37  27  67 SW14      29.54R WCI  28
GREEN BAY      FAIR      36  26  67 SW7       29.57R WCI  30
MANITOWOC      NOT AVBL
APPLETON       MOCLDY    36  25  64 SW14      29.57R WCI  27
CLINTONVILLE   FAIR      36  27  69 SW7       29.57R WCI  30
OSHKOSH        FAIR      36  27  69 SW8       29.61R WCI  30
$$

WIZ032>034-041-042-053>061-200400-
SOUTHWEST WISCONSIN

CITY           SKY/WX    TMP DP  RH WIND       PRES   REMARKS
LA CROSSE      FAIR      38  29  70 CALM      29.64R
SPARTA         FAIR      38  30  72 W5        29.63S WCI  35
VIROQUA        FAIR      38  31  77 SW12      29.63S WCI  30
BOSCOBEL       FAIR      37  27  67 SW8       29.68R WCI  31
PRAIRIE DU CHI FAIR      40  27  58 SW7       29.68R
PLATTEVILLE    FAIR      36  30  77 SW7       29.70R WCI  31
$$

WIZ056-057-062-063-064-067-068-200400-
SOUTH CENTRAL WISCONSIN

CITY           SKY/WX    TMP DP  RH WIND       PRES   REMARKS
REEDSBURG      FAIR      37  28  68 SW10      29.64R WCI  30
BARABOO/DELLS  FAIR      37  27  65 W7        29.63R WCI  32
LONE ROCK      NOT AVBL
MINERAL POINT  FAIR      37  32  81 SW9       29.68R WCI  31
MADISON        MOCLDY    38  27  64 SW7       29.67R WCI  33
MIDDLETON      FAIR      39  29  66 SW10G17   29.66S WCI  32
WATERTOWN      FAIR      37  29  74 SW13      29.66R WCI  29
MONROE         FAIR      37  28  70 SW22G28   29.68R WCI  27
JANESVILLE     PTCLDY    41  28  60 SW17G23     N/A
$$

WIZ051-052-058>065-066-070>072-200400-
SOUTHEAST WISCONSIN

CITY           SKY/WX    TMP DP  RH WIND       PRES   REMARKS
MILWAUKEE      FAIR      42  27  55 SW17G26   29.67R
WAUKESHA       CLEAR     37  27  65 SW17G26   29.67R WCI  28
MILWAUKEE/TIMM CLEAR     39  25  56 SW10G18   29.66R WCI  32
RACINE         FAIR      42  27  55 SW13G31   29.69R
BURLINGTON     FAIR      39  27  61 SW16      29.68R WCI  30
KENOSHA        FAIR      42  27  55 SW21G30   29.69R
FOND DU LAC    FAIR      36  26  67 SW9       29.62R WCI  29
SHEBOYGAN      FAIR      38  28  67 SW18G28   29.61R WCI  28
WEST BEND      FAIR      37  28  70 SW15G22   29.62R WCI  28
JUNEAU         FAIR      34  28  76 SW12      29.65S WCI  26
$$

LSZ147-162-200400-
LAKE SUPERIOR

STATION/POSITION TIME  TEMP    WIND        PRES    WAVE
                       AIR SEA DIR/SP/G            HT/PER
                 (UTC) (F)     (DEG/KT/KT) (MB)    (FT/S)
DEVILS ISLAND    0200   38     240/ 20/ 22  997.6R
SAXON HARBOR     0230   41     200/ 11/ 20  998.6R
$$

LMZ867-665-643>646-200400-
LAKE MICHIGAN

STATION/POSITION TIME  TEMP    WIND        PRES    WAVE
                       AIR SEA DIR/SP/G            HT/PER
                 (UTC) (F)     (DEG/KT/KT) (MB)    (FT/S)
NORTHPORT PIER   0240   37     230/  4/ 18  999.0F
KEWAUNEE LAKESHO 0230   37     220/  8/ 11 1000.9R
SHEBOYGAN LAKESH 0200   41     230/ 16/ 19 1003.0R
PORT WASHINGTON  0240   41     250/  9/ 17 1004.7R
MILWAUKEE LAKESH 0230   42     250/ 17/ 19   N/A
KENOSHA   LAKESH 0200   42     220/ 16/ 24 1005.1
$$

TC  - TEMPERATURE IN CELSIUS
VSB - VISIBILITY IN STATUTE MILES
WCI - WIND CHILL INDEX
HX  - HEAT INDEX




USA.gov is the U.S. government's official web portal to all federal, state and local government web resources and services.